Location: *
(46.1833°N, 22.7667°E)
Time: 04:28:59
(UTC+00:00)

SL-8 Rocket - Pass Details

Date: 17 September 2019
Orbit: 956 x 991 km, 82.9° (Epoch: 23 October)

Event Time Altitude Azimuth Distance (km) Brightness Sun altitude
Rises 18:33:07 0° 352° (N) 3,674 7.5 -20.1°
Reaches altitude 10° 18:35:39 10° 353° (N) 2,718 6.8 -20.5°
Maximum altitude 18:41:53 81° 82° (E) 978 3.9 -21.5°
Enters shadow 18:45:17 29° 166° (SSE) 1,695 4.9 -22.0°
